Location: Bremen
(53.0793°N, 8.8017°E)
Time: 06:18:39
(UTC+01:00)

Tiros 1 - Pass Details

Date: 09 December 2021
Orbit: 629 x 664 km, 48.4° (Epoch: 25 January)

Event Time Altitude Azimuth Distance (km) Brightness Sun altitude
Rises 20:14:17 0° 265° (W) 2,927 11.5 -35.5°
Reaches altitude 10° 20:16:39 10° 260° (W) 2,023 10.4 -35.9°
Enters shadow 20:17:49 17° 254° (WSW) 1,607 9.7 -36.1°
